Poughkeepsie, NY

5:23 AM EST on November 21, 2017 (GMT -0500)
Dutchess County

Weather History for KPOU - March, 2014

Change the Weather History Date:

Sunday, March 2, 2014

  Actual Average Record
Temperature  
Mean Temperature 30 °F 32 °F  
Max Temperature 36 °F 43 °F 69 °F (1991)
Min Temperature 24 °F 21 °F 2 °F (1952)
Degree Days  
Heating Degree Days 35 33  
Month to date heating degree days 82 66  
Since 1 July heating degree days 4785 4637  
Cooling Degree Days 0 0  
Month to date cooling degree days 0 0  
Year to date cooling degree days 0 0  
Moisture  
Dew Point 16 °F    
Average Humidity 53    
Maximum Humidity 64    
Minimum Humidity 46    
Precipitation  
Precipitation 0.00 in 0.11 in 1.02 in (2007)
Month to date precipitation 0.00 0.22  
Year to date precipitation 4.28 5.96  
Sea Level Pressure  
Sea Level Pressure 30.05 in    
Wind  
Wind Speed 4 mph (North)    
Max Wind Speed 12 mph    
Max Gust Speed -    
Visibility 10 miles    
Events      
T = Trace of Precipitation, MM = Missing Value Source: NWS Daily Summary

Daily Weather History Graph

Daily Weather History Graph

Search for Another Location

Airport or City:

Trip Planner

Search our weather history database for the weather conditions in past years. The results will help you decide how hot, cold, wet, or windy it might be!

Date:

Astronomy

Mar. 02, 2014 Rise Set
Actual Time 6:28 AM EST 5:47 PM EST
Civil Twilight 6:00 AM EST 6:15 PM EST
Nautical Twilight 5:28 AM EST 6:47 PM EST
Astronomical Twilight 4:56 AM EST 7:19 PM EST
Moon 6:56 AM EST (3/2) 7:42 PM EST (3/2)
Length of Visible Light 12h 14m
Length of Day
11h 18m
Waxing Crescent, 3% of the Moon is Illuminated
Mar 2
Waxing Crescent
Mar 8
First Quarter
Mar 16
Full
Mar 23
Last Quarter
Mar 30
New

Hourly Weather History & Observations

Time (EST) Temp. Windchill Dew Point Humidity Pressure Visibility Wind Dir Wind Speed Gust Speed Precip Events Conditions
12:53 AM 32.0 °F - 14.0 °F 48% 30.11 in 10.0 mi Calm Calm - N/A   Overcast
1:53 AM 33.1 °F 28.7 °F 14.0 °F 46% 30.09 in 10.0 mi SSW 4.6 mph - N/A   Overcast
2:53 AM 32.0 °F 27.5 °F 15.1 °F 50% 30.06 in 10.0 mi Variable 4.6 mph - N/A   Overcast
3:53 AM 33.1 °F 27.7 °F 15.1 °F 48% 30.05 in 10.0 mi Variable 5.8 mph - N/A   Overcast
4:53 AM 33.1 °F - 16.0 °F 50% 30.06 in 10.0 mi Calm Calm - N/A   Overcast
5:53 AM 33.1 °F 28.7 °F 16.0 °F 50% 30.04 in 10.0 mi Variable 4.6 mph - N/A   Overcast
6:53 AM 32.0 °F 27.5 °F 19.0 °F 59% 30.07 in 10.0 mi West 4.6 mph - N/A   Overcast
7:53 AM 32.0 °F - 19.0 °F 59% 30.08 in 10.0 mi Calm Calm - N/A   Overcast
8:53 AM 33.1 °F - 18.0 °F 54% 30.09 in 10.0 mi Calm Calm - N/A   Overcast
9:53 AM 33.1 °F 27.7 °F 19.0 °F 56% 30.09 in 10.0 mi North 5.8 mph - N/A   Overcast
10:53 AM 32.0 °F 23.6 °F 21.0 °F 64% 30.07 in 10.0 mi North 10.4 mph - N/A   Overcast
11:53 AM 32.0 °F 24.2 °F 19.0 °F 59% 30.07 in 10.0 mi NNE 9.2 mph - N/A   Overcast
12:53 PM 34.0 °F 31.0 °F 17.1 °F 50% 30.03 in 10.0 mi North 3.5 mph - N/A   Scattered Clouds
1:53 PM 35.1 °F 29.3 °F 19.0 °F 52% 30.00 in 10.0 mi NNE 6.9 mph - N/A   Clear
2:53 PM 36.0 °F 29.6 °F 18.0 °F 48% 30.00 in 10.0 mi North 8.1 mph - N/A   Overcast
3:53 PM 35.1 °F 29.3 °F 19.0 °F 52% 30.01 in 10.0 mi NNW 6.9 mph - N/A   Overcast
4:53 PM 34.0 °F 28.0 °F 18.0 °F 52% 30.01 in 10.0 mi NNE 6.9 mph - N/A   Overcast
5:53 PM 33.1 °F 26.1 °F 16.0 °F 50% 30.03 in 10.0 mi NNW 8.1 mph - N/A   Overcast
6:53 PM 30.0 °F 23.2 °F 15.1 °F 54% 30.03 in 10.0 mi North 6.9 mph - N/A   Overcast
7:53 PM 28.9 °F 19.2 °F 12.9 °F 51% 30.04 in 10.0 mi North 11.5 mph - N/A   Overcast
8:53 PM 27.0 °F 18.7 °F 12.9 °F 56% 30.04 in 10.0 mi North 8.1 mph - N/A   Overcast
9:53 PM 26.1 °F 19.4 °F 12.9 °F 58% 30.05 in 10.0 mi NNE 5.8 mph - N/A   Overcast
10:53 PM 25.0 °F 14.8 °F 12.0 °F 58% 30.06 in 10.0 mi North 10.4 mph - N/A   Overcast
11:53 PM 24.1 °F 15.2 °F 12.0 °F 60% 30.06 in 10.0 mi North 8.1 mph - N/A   Overcast